User: anonymous   Login
Location: Trois-Rivi�res
(46.3500°N, 72.5500°W)
Time: 03:09:43
(UTC-05:00)
Language:

Cosmos 1975 - Orbit

View from above orbital plane
View from above orbital plane
View from above satellite
View from above satellite

Ground track
Ground track

The orbit data is extracted from the following two-line orbital elements,

1 19573U 88093A   16338.21274649  .00000355  00000-0  23657-4 0  9999
2 19573  82.5191 175.0579 0012992 243.9542 116.0347 15.03966913530350
Epoch (UTC): 03 December 2016 05:06:21
Eccentricity: 0.0012992
inclination: 82.5191°
perigee height: 545 km
apogee height: 563 km
right ascension of ascending node: 175.0579°
argument of perigee: 243.9542°
revolutions per day: 15.03966913
mean anomaly at epoch: 116.0347°
orbit number at epoch: 53035

The dashed part of the orbit path shows where the satellite is in the earth's shadow,  

DLR